This is the latest recevied weather packets stored in our database for station/object N9ALD. If no packets are shown the sender has not sent any weather packets the latest 10 day(s).
| Time | Temp. | Humidity | Pressure | Rain* | Wind** | Luminosity | Snow |
|---|---|---|---|---|---|---|---|
| 1777637218 | 8.89° C | 87% | 1009.8 hPa | 0 mm | - | 80 W/m² | - |
| 1777636914 | 8.89° C | 88% | 1009.9 hPa | 0 mm | - | 57 W/m² | - |
| 1777636610 | 8.89° C | 88% | 1009.7 hPa | 0 mm | - | 24 W/m² | - |
| 1777636306 | 8.89° C | 88% | 1009.7 hPa | 0 mm | - | 35 W/m² | - |
| 1777636001 | 8.89° C | 89% | 1009.5 hPa | 1.78 mm | - | 21 W/m² | - |
| 1777635697 | 8.89° C | 89% | 1009.4 hPa | 1.78 mm | - | 14 W/m² | - |
| 1777635394 | 8.89° C | 90% | 1009.1 hPa | 0 mm | - | 15 W/m² | - |
| 1777635091 | 8.89° C | 91% | 1009.1 hPa | 0 mm | - | 12 W/m² | - |
| 1777634787 | 8.89° C | 92% | 1009 hPa | 0 mm | - | 10 W/m² | - |
| 1777634485 | 8.89° C | 93% | 1009.2 hPa | 0 mm | - | 10 W/m² | - |
| 1777634181 | 8.89° C | 93% | 1008.9 hPa | 0 mm | - | 5 W/m² | - |
| 1777633877 | 8.89° C | 93% | 1009 hPa | 0 mm | - | 3 W/m² | - |
| 1777633576 | 8.89° C | 93% | 1008.8 hPa | 0 mm | - | 2 W/m² | - |
| 1777633273 | 8.89° C | 93% | 1008.9 hPa | 1.78 mm | - | 1 W/m² | - |
| 1777632970 | 8.89° C | 93% | 1008.8 hPa | 1.78 mm | - | 0 W/m² | - |
| 1777632667 | 8.89° C | 93% | 1008.9 hPa | 1.27 mm | - | 0 W/m² | - |
| 1777632363 | 8.89° C | 92% | 1008.9 hPa | 4.32 mm | - | 0 W/m² | - |
| 1777632061 | 8.89° C | 92% | 1008.9 hPa | 4.83 mm | - | 0 W/m² | - |
| 1777631758 | 8.89° C | 92% | 1008.8 hPa | 1.78 mm | - | 0 W/m² | - |
| 1777631455 | 8.89° C | 91% | 1008.8 hPa | 0 mm | - | 0 W/m² | - |
| 1777631152 | 8.89° C | 91% | 1008.5 hPa | 0 mm | - | 0 W/m² | - |
| 1777630850 | 8.89° C | 91% | 1008.7 hPa | 0 mm | - | 0 W/m² | - |
| 1777630545 | 8.89° C | 90% | 1008.9 hPa | 0 mm | - | 0 W/m² | - |
| 1777630242 | 8.89° C | 90% | 1008.9 hPa | 1.27 mm | - | 0 W/m² | - |
| 1777629940 | 9.44° C | 89% | 1008.8 hPa | 3.05 mm | - | 0 W/m² | - |
* Rain latest hour (hover to see other rain measurements)
** Current wind speed in m/s (hover to see current wind gust speed)